Temperature
12 12 12 13 13 13 13 14 14 15 15 16 17 17 17 17 17 17 17 17 16 16 16 17 16 16 16 16 16 16 16 16 16 16 16 16 16 16
12 12 12 12 12 12 13 13 14 14 14 15 16 16 16 16 16 16 16 16 16 16 16 16 16 16 16 16 16 16 16 16 16 16 16 16 16 16
11 11 11 11 12 12 12 12 13 13 14 15 15 15 16 16 16 16 16 16 16 16 16 16 16 16 16 16 16 16 16 16 16 16 16 16 16 16
11 11 11 11 11 11 12 12 12 13 13 14 15 15 15 16 16 16 16 16 16 16 16 16 16 16 16 16 16 16 16 16 16 16 16 16 16 16
10 10 11 11 11 11 11 11 12 12 13 13 14 14 14 15 15 15 15 15 15 15 15 15 15 15 15 16 16 16 16 16 16 16 16 16 16 16
10 10 10 10 10 11 11 11 11 12 12 12 13 13 14 14 14 14 14 14 14 15 15 15 15 15 15 15 15 15 16 16 16 16 16 16 16 16
9 10 10 10 10 10 10 11 11 11 11 12 12 12 13 13 14 14 14 14 14 14 14 14 14 15 15 15 15 15 15 15 15 16 16 16 16 16
9 9 9 10 10 10 10 10 10 11 11 11 11 12 12 13 13 13 13 13 13 13 14 14 14 14 14 14 14 15 15 15 15 15 15 15 15 15
8 9 9 9 9 9 10 10 10 10 10 10 11 11 11 12 12 12 13 13 14 14 14 13 13 13 13 14 14 14 14 15 15 14 15 15 15 15
8 8 8 9 9 9 9 10 10 10 10 10 10 11 11 11 12 12 13 13 13 13 13 13 13 13 13 13 13 13 13 14 14 14 14 14 14 14
8 8 8 8 9 9 9 9 9 10 10 10 10 10 10 11 11 11 11 12 12 12 12 12 13 12 12 12 12 12 13 13 13 13 13 13 13 13
7 7 8 8 8 8 8 9 9 9 10 9 10 10 10 10 10 11 11 12 12 11 11 12 12 12 11 12 12 12 12 12 12 12 12 12 12 12
7 7 7 7 8 8 8 8 9 9 9 9 9 9 10 10 10 10 11 11 12 12 12 12 12 12 12 12 11 11 12 12 12 12 12 12 12 12
7 7 7 7 7 7 8 8 9 9 9 9 9 9 9 10 10 10 11 11 11 12 12 12 12 12 12 12 11 11 11 11 11 11 11 11 11 11
6 7 7 7 7 7 8 8 8 8 9 9 9 9 9 9 10 10 10 10 11 11 11 12 12 12 12 13 12 12 11 11 11 11 11 11 11 11
6 6 6 6 7 7 8 8 8 8 9 9 9 9 9 9 9 10 10 10 10 10 11 11 11 12 12 12 12 12 12 11 11 11 10 10 10 10
6 6 6 6 7 7 7 8 8 8 8 8 9 9 9 9 9 9 10 10 10 10 10 11 11 11 11 11 11 11 11 11 11 11 10 10 10 10
6 6 6 6 7 7 7 8 8 8 8 8 9 9 9 9 9 9 9 10 10 10 10 10 10 10 10 10 10 11 11 11 11 11 10 10 10 10
6 6 6 6 7 7 7 7 8 8 8 8 8 8 8 9 9 9 9 9 10 10 10 10 10 10 10 10 10 10 11 11 11 10 10 10 10 10
6 6 6 7 7 7 7 7 8 8 8 8 8 8 8 8 8 9 9 9 9 10 10 10 10 10 10 11 11 10 10 11 11 10 10 10 9 9
6 6 7 7 7 7 7 7 8 8 8 8 8 8 8 8 8 9 9 9 9 9 9 10 10 10 10 10 10 10 10 10 10 11 10 9 9 9
7 7 7 7 7 7 7 8 8 8 8 8 8 8 8 8 8 9 9 9 9 9 10 10 10 9 9 10 10 10 10 10 9 9 10 10 10 10
7 7 7 7 7 7 7 8 8 8 8 8 8 8 8 8 8 8 9 9 9 9 9 9 9 9 9 9 10 10 10 9 9 9 9 9 9 10
Wind_Speed
5 5 4 3 2 2 2 3 3 2 3 3 1 2 4 6 11 12 11 15 16 16 15 14 14 13 13 13 14 14 14 15 15 15 16 17 18 19
5 5 5 3 3 2 3 3 3 3 3 2 2 2 4 6 9 10 11 15 15 15 14 13 12 11 11 11 11 11 11 12 12 12 12 13 14 16
7 6 6 5 3 3 3 3 3 3 3 3 1 1 3 6 6 7 9 9 10 13 13 12 12 11 10 9 9 8 8 8 8 9 10 11 12 14
8 7 7 6 5 4 3 3 3 3 3 4 2 1 2 6 8 8 6 8 8 12 13 13 12 11 10 9 8 7 7 6 7 7 8 9 10 12
9 9 9 7 7 5 5 4 3 3 3 3 3 2 2 4 6 6 7 5 7 10 12 12 11 10 9 8 7 6 6 6 6 6 7 7 8 10
9 9 9 9 9 8 6 6 5 4 3 3 3 3 3 4 6 7 6 4 5 6 7 9 10 9 7 7 6 6 5 5 5 5 5 6 6 7
9 8 9 11 12 10 7 6 6 5 4 3 4 4 4 6 7 6 7 6 4 3 5 4 5 4 4 5 4 4 5 5 5 5 4 5 5 4
8 8 9 10 11 13 13 12 10 7 6 5 4 5 5 5 5 7 7 6 5 5 5 4 4 3 2 3 4 4 5 6 6 6 6 6 6 6
8 8 9 9 9 8 10 13 13 13 11 8 6 6 6 7 8 8 8 8 5 8 6 4 4 3 2 3 4 5 6 7 7 8 8 9 9 9
9 9 9 8 8 8 8 7 8 9 10 8 7 7 6 6 7 8 8 6 4 6 6 4 4 3 3 3 4 5 7 8 9 10 11 12 12 12
9 9 9 9 11 12 9 8 7 7 9 11 10 10 10 9 7 6 8 8 6 5 3 4 5 4 3 2 3 5 7 8 10 11 12 13 14 14
6 7 11 11 12 13 10 9 9 8 7 7 6 7 7 8 11 8 8 9 6 5 5 5 5 5 4 2 2 3 5 6 9 10 11 12 13 11
6 6 6 12 13 14 12 9 11 9 7 7 6 5 4 5 7 7 7 7 7 4 8 6 5 4 5 4 3 2 3 3 4 6 8 10 10 10
6 5 6 9 11 12 11 11 13 11 6 6 5 5 5 5 6 7 8 7 6 6 10 9 6 7 6 5 4 4 3 4 4 3 5 8 9 9
5 7 7 8 8 8 11 13 11 7 6 5 6 6 5 6 6 5 5 5 4 6 11 7 7 8 7 6 6 6 4 4 4 4 4 4 4 5
4 5 6 6 5 5 6 7 7 7 7 6 6 5 4 4 5 5 5 6 5 4 6 9 9 11 6 6 7 7 6 7 7 5 4 3 5 7
3 2 2 2 3 3 3 4 5 6 6 6 6 5 4 4 4 4 5 5 6 6 6 5 5 6 6 8 7 8 7 5 7 7 5 4 3 6
4 3 4 5 5 6 6 5 5 6 7 6 6 6 5 5 5 4 4 5 6 7 7 7 7 5 4 1 5 9 9 7 7 7 5 5 4 4
3 4 4 5 5 6 6 6 7 7 7 7 7 7 6 5 5 5 6 5 6 7 8 8 9 8 8 7 5 8 10 9 9 7 6 4 5 5
4 4 5 5 5 6 6 6 6 6 6 7 7 7 7 6 5 6 6 7 6 7 7 8 10 10 9 8 6 6 13 11 9 9 7 3 3 3
4 4 5 5 5 6 6 6 6 7 7 7 8 8 7 7 6 7 7 9 8 7 10 10 9 10 6 7 6 5 6 13 14 9 8 6 4 3
4 5 5 5 6 6 6 6 6 7 8 8 8 8 8 8 8 8 8 8 7 7 8 7 8 8 6 8 8 8 7 6 8 13 13 10 7 8
4 5 4 5 5 5 5 7 7 7 7 8 8 8 8 8 7 8 8 8 8 8 8 8 8 7 6 8 8 7 9 8 6 5 3 3 9 11
Wind_Direction
248 254 251 251 250 237 209 185 181 212 239 241 224 200 179 168 175 172 172 181 183 184 186 190 192 196 200 205 209 212 216 220 222 224 226 228 228 228
234 240 247 242 233 229 224 211 195 194 219 238 233 198 174 169 162 157 162 169 173 173 174 176 177 181 187 192 197 203 209 213 217 221 225 228 228 229
237 230 235 231 227 224 214 211 208 193 217 245 247 157 149 151 141 140 146 150 159 162 162 164 165 169 170 175 179 185 192 200 209 216 223 228 231 233
237 231 234 230 220 218 210 207 205 203 208 225 222 196 167 159 151 146 147 147 142 151 151 152 153 155 159 165 172 178 184 193 205 215 224 230 235 237
232 228 229 224 224 215 206 208 208 210 197 200 201 194 171 158 149 142 138 126 135 142 140 141 143 146 150 157 166 175 183 193 205 217 225 232 238 239
233 227 224 217 221 217 211 205 200 195 189 188 187 186 177 163 156 151 146 139 142 142 132 132 133 131 135 143 153 164 173 184 197 208 216 223 227 230
237 229 226 224 221 217 212 197 189 185 180 186 193 183 181 169 172 164 157 145 134 141 133 131 125 118 121 130 137 150 159 167 174 181 187 189 189 187
234 231 235 237 231 223 216 201 188 184 186 186 199 195 194 186 166 164 158 157 167 162 145 143 137 132 117 118 133 143 148 150 151 152 151 150 149 145
228 226 237 235 225 219 220 215 207 199 187 182 191 199 194 194 175 175 179 173 168 164 145 144 141 132 113 113 134 142 143 141 141 141 137 131 128 124
226 222 222 226 228 211 208 209 209 207 200 192 193 199 196 188 183 183 182 159 114 150 147 140 144 128 109 91 127 142 141 136 134 133 131 123 115 108
231 226 221 220 222 208 197 203 210 217 211 201 197 198 197 190 176 165 169 170 162 168 163 132 138 122 112 100 107 134 138 137 134 132 130 124 116 106
235 229 225 223 220 208 198 195 205 211 199 197 198 203 200 197 188 185 179 180 165 164 166 135 140 136 135 129 123 127 126 129 134 135 134 131 125 114
230 226 228 227 222 212 202 197 206 196 187 183 185 189 189 194 196 193 189 183 175 166 164 144 145 140 138 143 150 154 148 141 140 139 140 137 134 131
225 219 220 219 220 215 207 207 202 189 175 172 176 187 194 199 201 198 196 195 186 172 165 154 149 157 144 144 159 160 162 165 159 155 153 142 128 123
225 214 211 212 212 214 212 204 191 180 169 173 185 195 200 198 186 186 190 187 178 170 168 164 152 154 149 151 155 157 161 179 177 162 163 163 158 146
229 222 214 212 204 197 197 195 185 182 176 181 187 192 185 178 179 176 177 175 172 173 175 172 162 158 152 147 153 161 164 170 176 174 161 163 167 168
190 180 181 182 190 186 182 183 181 177 182 180 179 181 182 180 186 177 169 169 174 176 170 162 156 153 149 151 156 165 163 162 166 164 158 166 186 183
178 188 196 196 196 196 194 191 191 192 189 184 182 182 185 188 190 181 172 175 179 177 174 163 150 135 114 96 162 165 170 166 160 161 155 159 186 198
196 208 208 206 204 197 195 193 195 197 188 184 186 185 183 185 185 187 182 180 181 178 175 168 166 165 170 176 188 178 170 166 161 166 172 163 181 193
212 216 217 214 209 203 201 199 196 189 187 190 189 188 185 183 187 189 187 186 180 175 176 175 179 180 182 173 165 178 178 167 167 172 171 148 121 133
227 227 222 216 212 209 205 200 196 193 192 192 193 190 188 186 191 192 189 187 180 177 183 189 187 168 135 126 132 145 169 179 172 167 163 150 139 143
239 236 231 222 215 212 207 200 199 198 195 196 195 193 190 188 190 190 187 184 184 181 182 174 157 155 156 166 164 158 156 157 162 163 164 165 164 179
244 241 236 228 219 211 205 202 201 202 198 194 191 189 187 188 188 185 186 185 180 177 168 164 165 168 169 166 159 153 153 153 149 145 153 181 186 188
Height
1465 1465 1465 1465 1465 1466 1467 1469 1471 1471 1473 1476 1478 1482 1486 1489 1493 1497 1501 1503 1507 1510 1512 1515 1517 1520 1523 1526 1528 1531 1533 1535 1537 1539 1541 1544 1546 1548
1460 1460 1461 1461 1462 1462 1463 1465 1467 1468 1470 1472 1475 1478 1482 1486 1490 1493 1497 1500 1503 1506 1509 1511 1514 1516 1519 1521 1524 1526 1528 1530 1532 1534 1536 1538 1540 1542
1455 1455 1456 1457 1457 1458 1459 1460 1462 1464 1466 1468 1472 1475 1478 1481 1486 1490 1493 1497 1500 1503 1505 1508 1510 1512 1515 1518 1520 1522 1524 1526 1528 1530 1531 1533 1535 1537
1449 1450 1451 1452 1453 1454 1455 1456 1458 1460 1463 1464 1467 1471 1474 1478 1482 1486 1490 1493 1496 1499 1502 1504 1507 1509 1511 1514 1516 1518 1520 1522 1523 1525 1527 1528 1530 1531
1442 1443 1444 1446 1448 1449 1450 1452 1454 1456 1459 1461 1463 1467 1471 1474 1478 1482 1485 1489 1493 1496 1499 1501 1504 1506 1508 1511 1513 1514 1516 1518 1520 1521 1522 1524 1525 1526
1435 1437 1438 1440 1442 1444 1446 1448 1450 1452 1454 1457 1459 1463 1467 1470 1474 1477 1481 1485 1489 1492 1495 1498 1501 1503 1505 1508 1509 1511 1513 1514 1516 1517 1518 1519 1521 1522
1428 1430 1431 1434 1436 1439 1441 1443 1445 1447 1449 1452 1455 1458 1462 1465 1469 1473 1477 1481 1486 1489 1492 1495 1498 1500 1502 1504 1506 1508 1509 1511 1512 1513 1514 1515 1516 1517
1421 1423 1425 1427 1430 1433 1435 1438 1440 1443 1445 1448 1451 1453 1456 1460 1464 1468 1472 1477 1481 1485 1488 1492 1494 1497 1500 1502 1503 1505 1506 1508 1509 1510 1511 1512 1513 1514
1414 1416 1418 1420 1424 1426 1429 1432 1435 1438 1441 1443 1446 1448 1452 1456 1460 1464 1468 1473 1477 1480 1485 1488 1491 1494 1497 1499 1501 1502 1504 1505 1506 1507 1508 1509 1510 1511
1407 1409 1411 1414 1417 1420 1423 1427 1430 1433 1435 1438 1441 1444 1448 1451 1455 1459 1463 1469 1474 1477 1481 1484 1487 1490 1494 1496 1498 1500 1502 1503 1504 1505 1507 1508 1508 1510
1400 1402 1404 1407 1410 1414 1418 1421 1424 1427 1431 1434 1437 1440 1443 1446 1450 1455 1459 1463 1467 1471 1476 1479 1483 1487 1490 1493 1496 1498 1500 1501 1503 1504 1506 1507 1508 1509
1393 1395 1398 1401 1404 1408 1411 1415 1418 1422 1426 1429 1432 1435 1438 1442 1446 1450 1453 1457 1461 1466 1470 1475 1478 1483 1487 1490 1493 1495 1498 1499 1501 1503 1505 1506 1507 1508
1387 1389 1392 1395 1398 1402 1405 1409 1413 1418 1422 1425 1428 1431 1434 1437 1440 1444 1449 1453 1456 1460 1464 1469 1474 1478 1482 1486 1490 1493 1495 1498 1500 1501 1503 1505 1506 1508
1382 1384 1386 1389 1393 1396 1400 1404 1409 1413 1417 1420 1424 1426 1430 1433 1436 1440 1444 1448 1452 1456 1460 1465 1469 1473 1477 1481 1485 1489 1492 1495 1498 1500 1502 1504 1505 1507
1378 1379 1382 1385 1388 1391 1395 1399 1404 1408 1412 1416 1419 1423 1426 1430 1433 1437 1440 1444 1448 1452 1456 1461 1465 1470 1474 1478 1481 1485 1489 1492 1495 1498 1501 1503 1504 1506
1374 1376 1378 1381 1383 1387 1391 1395 1399 1403 1407 1412 1416 1419 1423 1426 1429 1432 1436 1439 1443 1447 1452 1457 1462 1466 1470 1475 1479 1482 1486 1489 1492 1495 1499 1502 1504 1506
1371 1373 1375 1377 1380 1383 1387 1390 1394 1399 1403 1408 1412 1415 1418 1422 1425 1429 1432 1436 1439 1443 1447 1453 1458 1463 1468 1472 1476 1479 1483 1486 1489 1493 1496 1499 1502 1504
1369 1370 1372 1374 1377 1380 1383 1387 1391 1395 1399 1403 1407 1411 1414 1418 1421 1425 1428 1432 1435 1439 1444 1448 1453 1458 1463 1468 1472 1476 1479 1483 1487 1491 1494 1497 1500 1503
1366 1367 1369 1371 1374 1377 1380 1384 1387 1391 1395 1399 1403 1406 1410 1414 1417 1421 1424 1428 1432 1436 1440 1444 1448 1453 1457 1462 1467 1472 1475 1479 1483 1488 1492 1496 1499 1501
1364 1365 1367 1369 1371 1374 1377 1380 1383 1387 1391 1394 1398 1402 1405 1409 1413 1416 1420 1424 1428 1432 1436 1440 1444 1448 1453 1458 1463 1467 1472 1476 1480 1484 1489 1493 1497 1501
1362 1363 1364 1366 1368 1370 1373 1376 1379 1382 1386 1389 1393 1397 1401 1404 1408 1412 1416 1420 1424 1428 1431 1435 1440 1446 1452 1456 1460 1464 1469 1474 1478 1482 1486 1490 1494 1497
1360 1361 1362 1363 1365 1367 1369 1372 1375 1378 1381 1385 1388 1392 1396 1399 1403 1407 1411 1415 1419 1424 1428 1432 1437 1442 1447 1451 1455 1460 1465 1471 1476 1481 1486 1489 1490 1494
1359 1359 1360 1360 1362 1363 1365 1368 1370 1373 1376 1380 1383 1387 1391 1395 1398 1403 1407 1411 1416 1420 1424 1428 1433 1438 1443 1448 1453 1457 1462 1467 1472 1477 1482 1487 1491 1495